Indianapolis Mount Comfort, IN

1:08 AM EST on December 13, 2019 (GMT -0500)
Mount Comfort

Weather History for KMQJ - June, 2019

Change the Weather History Date:

Tuesday, June 4, 2019

  Actual Average (WUND) Record (WUND)
Temperature  
Mean Temperature 68 °F -  
Max Temperature 80 °F - - (-1)
Min Temperature 55 °F - - (-1)
Cooling Degree Days 2    
Growing Degree Days 18 (Base 50)    
Moisture  
Dew Point 58 °F    
Average Humidity 72    
Maximum Humidity 100    
Minimum Humidity 44    
Precipitation  
Precipitation 0.00 in - - ()
Sea Level Pressure  
Sea Level Pressure 30.03 in    
Wind  
Wind Speed 5 mph (South)    
Max Wind Speed 17 mph    
Max Gust Speed 23 mph    
Visibility 10 miles    
Events      
Averages and records for this station are not official NWS values.
T = Trace of Precipitation, MM = Missing Value Source: NWS Daily Summary

Daily Weather History Graph

Daily Weather History Graph

Search for Another Location

Airport or City:

Astronomy

Jun. 04, 2019 Rise Set
Actual Time 6:16 AM EDT 9:07 PM EDT
Civil Twilight 5:44 AM EDT 9:40 PM EDT
Nautical Twilight 5:03 AM EDT 10:20 PM EDT
Astronomical Twilight 4:17 AM EDT 11:07 PM EDT
Moon 7:24 AM EDT (6/4) 10:35 PM EDT (6/4)
Length of Visible Light 15h 55m
Length of Day
14h 51m
New Moon, 2% of the Moon is Illuminated
Jun 4
New Moon
Jun 10
First Quarter
Jun 17
Full
Jun 25
Last Quarter
Jul 2
New

Hourly Weather History & Observations

Time (EDT) Temp. Heat Index Dew Point Humidity Pressure Visibility Wind Dir Wind Speed Gust Speed Precip Events Conditions
12:06 AM 62.6 °F - 57.2 °F 82% 30.12 in 10.0 mi South 3.5 mph - N/A   Clear
12:22 AM 60.8 °F - 57.2 °F 88% 30.11 in 10.0 mi Calm Calm - N/A   Clear
12:43 AM 59.0 °F - 59.0 °F 100% 30.11 in 10.0 mi Calm Calm - N/A   Clear
1:03 AM 59.0 °F - 59.0 °F 100% 30.11 in 10.0 mi Calm Calm - N/A   Clear
1:25 AM 59.0 °F - 57.2 °F 94% 30.11 in 10.0 mi Calm Calm - N/A   Clear
1:42 AM 59.0 °F - 57.2 °F 94% 30.11 in 10.0 mi Calm Calm - N/A   Clear
2:04 AM 57.2 °F - 57.2 °F 100% 30.11 in 10.0 mi Calm Calm - N/A   Clear
2:28 AM 57.2 °F - 57.2 °F 100% 30.12 in 10.0 mi Calm Calm - N/A   Clear
2:44 AM 57.2 °F - 57.2 °F 100% 30.11 in 10.0 mi Calm Calm - N/A   Clear
3:02 AM 57.2 °F - 57.2 °F 100% 30.11 in 10.0 mi Calm Calm - N/A   Clear
3:25 AM 57.2 °F - 57.2 °F 100% 30.12 in 10.0 mi Calm Calm - N/A   Clear
3:44 AM 55.4 °F - 55.4 °F 100% 30.11 in 10.0 mi Calm Calm - N/A   Clear
4:24 AM 57.2 °F - 57.2 °F 100% 30.12 in 10.0 mi Calm Calm - N/A   Clear
4:43 AM 57.2 °F - 57.2 °F 100% 30.12 in 10.0 mi Calm Calm - N/A   Clear
5:02 AM 57.2 °F - 57.2 °F 100% 30.11 in 10.0 mi Calm Calm - N/A   Clear
5:23 AM 57.2 °F - 57.2 °F 100% 30.11 in 10.0 mi Calm Calm - N/A   Clear
5:43 AM 57.2 °F - 57.2 °F 100% 30.10 in 10.0 mi SSE 3.5 mph - N/A   Clear
6:02 AM 59.0 °F - 59.0 °F 100% 30.10 in 10.0 mi SSE 4.6 mph - N/A   Clear
6:27 AM 57.2 °F - 57.2 °F 100% 30.12 in 10.0 mi Calm Calm - N/A   Scattered Clouds
6:45 AM 59.0 °F - 59.0 °F 100% 30.12 in 10.0 mi SSE 3.5 mph - N/A   Scattered Clouds
7:07 AM 59.0 °F - 59.0 °F 100% 30.12 in 10.0 mi South 4.6 mph - N/A   Clear
7:28 AM 59.0 °F - 59.0 °F 100% 30.11 in 10.0 mi South 3.5 mph - N/A   Clear
7:44 AM 60.8 °F - 59.0 °F 94% 30.12 in 10.0 mi SSE 5.8 mph - N/A   Clear
8:06 AM 60.8 °F - 57.2 °F 88% 30.11 in 10.0 mi South 4.6 mph - N/A   Clear
8:23 AM 62.6 °F - 59.0 °F 88% 30.11 in 10.0 mi SSE 5.8 mph - N/A   Clear
8:43 AM 64.4 °F - 59.0 °F 83% 30.11 in 10.0 mi South 6.9 mph - N/A   Clear
9:02 AM 64.4 °F - 59.0 °F 83% 30.10 in 10.0 mi South 4.6 mph - N/A   Clear
9:22 AM 66.2 °F - 59.0 °F 78% 30.09 in 10.0 mi South 8.1 mph - N/A   Clear
9:45 AM 66.2 °F - 59.0 °F 78% 30.09 in 10.0 mi South 5.8 mph - N/A   Clear
10:08 AM 69.8 °F - 59.0 °F 68% 30.09 in 10.0 mi South 9.2 mph - N/A   Clear
10:27 AM 69.8 °F - 59.0 °F 68% 30.09 in 10.0 mi SSW 8.1 mph - N/A   Clear
10:48 AM 71.6 °F - 59.0 °F 64% 30.09 in 10.0 mi SSW 9.2 mph - N/A   Clear
11:06 AM 73.4 °F - 59.0 °F 61% 30.08 in 10.0 mi South 9.2 mph - N/A   Clear
11:26 AM 73.4 °F - 59.0 °F 61% 30.08 in 10.0 mi SSW 11.5 mph - N/A   Clear
11:42 AM 75.2 °F - 59.0 °F 57% 30.07 in 10.0 mi SSW 11.5 mph - N/A   Clear
12:05 PM 75.2 °F - 57.2 °F 53% 30.07 in 10.0 mi SSW 15.0 mph - N/A   Clear
12:24 PM 75.2 °F - 57.2 °F 53% 30.07 in 10.0 mi SSW 15.0 mph 18.4 mph N/A   Clear
12:43 PM 77.0 °F - 59.0 °F 54% 30.06 in 10.0 mi SSW 12.7 mph - N/A   Clear
1:02 PM 77.0 °F - 59.0 °F 54% 30.06 in 10.0 mi SSW 11.5 mph - N/A   Clear
1:23 PM 77.0 °F - 59.0 °F 54% 30.05 in 10.0 mi South 13.8 mph - N/A   Clear
1:44 PM 78.8 °F - 59.0 °F 51% 30.04 in 10.0 mi South 13.8 mph 19.6 mph N/A   Clear
2:03 PM 78.8 °F - 59.0 °F 51% 30.03 in 10.0 mi SSW 17.3 mph 23.0 mph N/A   Clear
2:25 PM 78.8 °F - 57.2 °F 47% 30.02 in 10.0 mi SSW 13.8 mph 20.7 mph N/A   Clear
2:46 PM 78.8 °F - 57.2 °F 47% 30.01 in 10.0 mi SSW 13.8 mph 19.6 mph N/A   Clear
3:04 PM 78.8 °F - 57.2 °F 47% 30.01 in 10.0 mi SSW 15.0 mph - N/A   Clear
3:27 PM 78.8 °F - 57.2 °F 47% 30.00 in 10.0 mi SSW 16.1 mph 19.6 mph N/A   Clear
3:44 PM 78.8 °F - 57.2 °F 47% 30.00 in 10.0 mi SSW 15.0 mph - N/A   Clear
4:03 PM 78.8 °F - 57.2 °F 47% 29.99 in 10.0 mi SSW 12.7 mph 18.4 mph N/A   Clear
4:27 PM 78.8 °F - 59.0 °F 51% 29.99 in 10.0 mi SW 13.8 mph 18.4 mph N/A   Clear
4:47 PM 78.8 °F - 59.0 °F 51% 29.98 in 10.0 mi SSW 12.7 mph - N/A   Clear
5:03 PM 80.6 °F 81.1 °F 59.0 °F 48% 29.97 in 10.0 mi SSW 15.0 mph 19.6 mph N/A   Clear
5:24 PM 78.8 °F - 59.0 °F 51% 29.96 in 10.0 mi South 15.0 mph 21.9 mph N/A   Clear
5:45 PM 78.8 °F - 57.2 °F 47% 29.94 in 10.0 mi SSW 12.7 mph 17.3 mph N/A   Clear
6:07 PM 77.0 °F - 55.4 °F 47% 29.94 in 10.0 mi SSW 15.0 mph 20.7 mph N/A   Clear
6:27 PM 78.8 °F - 55.4 °F 44% 29.93 in 10.0 mi South 10.4 mph 18.4 mph N/A   Clear
6:44 PM 78.8 °F - 57.2 °F 47% 29.92 in 10.0 mi South 12.7 mph 18.4 mph N/A   Clear
7:02 PM 77.0 °F - 55.4 °F 47% 29.92 in 7.0 mi SSW 9.2 mph 17.3 mph N/A   Clear
7:22 PM 77.0 °F - 55.4 °F 47% 29.91 in 7.0 mi South 9.2 mph - N/A   Clear
7:46 PM 77.0 °F - 57.2 °F 50% 29.91 in 10.0 mi SSW 10.4 mph 16.1 mph N/A   Clear
8:06 PM 75.2 °F - 55.4 °F 50% 29.90 in 10.0 mi SSW 8.1 mph - N/A   Scattered Clouds
8:25 PM 75.2 °F - 57.2 °F 53% 29.90 in 10.0 mi SSW 10.4 mph - N/A   Mostly Cloudy
8:44 PM 73.4 °F - 57.2 °F 57% 29.89 in 10.0 mi SSW 8.1 mph - N/A   Mostly Cloudy
9:02 PM 71.6 °F - 59.0 °F 64% 29.88 in 10.0 mi South 5.8 mph - N/A   Scattered Clouds
9:24 PM 71.6 °F - 59.0 °F 64% 29.89 in 10.0 mi South 4.6 mph - N/A   Clear
9:45 PM 69.8 °F - 59.0 °F 68% 29.88 in 10.0 mi South 4.6 mph - N/A   Clear
10:04 PM 69.8 °F - 59.0 °F 68% 29.89 in 10.0 mi South 4.6 mph - N/A   Clear
10:22 PM 69.8 °F - 59.0 °F 68% 29.89 in 10.0 mi South 4.6 mph - N/A   Clear
10:43 PM 69.8 °F - 59.0 °F 68% 29.89 in 10.0 mi South 5.8 mph - N/A   Clear
11:02 PM 69.8 °F - 59.0 °F 68% 29.90 in 10.0 mi South 5.8 mph - N/A   Clear
11:24 PM 69.8 °F - 59.0 °F 68% 29.90 in 10.0 mi South 6.9 mph - N/A   Clear
11:44 PM 69.8 °F - 60.8 °F 73% 29.90 in 10.0 mi South 5.8 mph - N/A   Scattered Clouds